CW9790 Weather Reports


Display with metric or nautical units.
time (UTC)temp
F
wind
direction
speed
MPH
gust
MPH
rain 1hr
in
rain 24hr
in
rain mn
in
humidity
%
barometer
mb
20190320155840 64 168 0.0 0.0 0.00 0.00 0.00 72 1021.1
20190320153859 62 99 0.0 0.0 0.00 0.00 0.00 75 1021.1
20190320152833 61 201 0.0 0.0 0.00 0.00 0.00 77 1021.1
20190320151849 60 184 0.0 0.0 0.00 0.00 0.00 77 1021.2
20190320150844 60 184 0.0 0.0 0.00 0.00 0.00 79 1021.2
20190320145816 59 202 0.0 0.0 0.00 0.00 0.00 84 1021.0
20190320144805 56 202 0.0 0.0 0.00 0.00 0.00 92 1021.0
20190320142704 53 202 0.0 0.0 0.00 0.00 0.00 92 1021.1
20190320141713 52 202 0.0 0.0 0.00 0.00 0.00 92 1021.0
20190320140657 51 202 0.0 0.0 0.00 0.00 0.00 92 1020.8
20190320132620 48 202 0.0 0.0 0.00 0.00 0.00 91 1020.3
20190320131610 48 202 0.0 0.0 0.00 0.00 0.00 91 1020.2
20190320130605 47 202 0.0 0.0 0.00 0.00 0.00 91 1020.2
20190320125531 47 202 0.0 0.0 0.00 0.00 0.00 91 1020.0
20190320124547 47 202 0.0 0.0 0.00 0.00 0.00 90 1020.0
20190320122500 47 202 0.0 0.0 0.00 0.00 0.00 90 1019.7
20190320113318 48 202 0.0 0.0 0.00 0.00 0.00 90 1019.1
20190320112331 48 202 0.0 0.0 0.00 0.00 0.00 90 1019.1
20190320111312 48 202 0.0 0.0 0.00 0.00 0.00 90 1019.0
20190320110249 48 202 0.0 0.0 0.00 0.00 0.00 90 1018.9
20190320105219 48 202 0.0 0.0 0.00 0.00 0.00 89 1018.9
20190320103226 48 202 0.0 0.0 0.00 0.00 0.00 89 1018.7
20190320102220 48 202 0.0 0.0 0.00 0.00 0.00 88 1018.6
20190320101222 48 202 0.0 0.0 0.00 0.00 0.00 88 1018.5
20190320094214 48 202 0.0 0.0 0.00 0.00 0.00 88 1018.3
20190320092150 49 202 0.0 0.0 0.00 0.00 0.00 88 1018.3
20190320091115 49 202 0.0 0.0 0.00 0.00 0.00 88 1018.3
20190320085144 50 202 0.0 0.0 0.00 0.00 0.00 89 1018.5
20190320083104 50 202 0.0 0.0 0.00 0.00 0.00 88 1018.7
20190320080037 49 202 0.0 0.0 0.00 0.00 0.00 87 1019.0
20190320075008 49 202 0.0 0.0 0.00 0.00 0.00 87 1019.1
20190320073015 49 202 0.0 0.0 0.00 0.00 0.00 86 1019.2
20190320072006 49 202 0.0 0.0 0.00 0.00 0.00 86 1019.3
20190320063952 50 202 0.0 0.0 0.00 0.00 0.00 85 1019.6
20190320062922 50 202 0.0 0.0 0.00 0.00 0.00 84 1019.6
20190320060928 50 202 0.0 0.0 0.00 0.00 0.00 81 1019.8
20190320054933 50 202 0.0 0.0 0.00 0.00 0.00 79 1019.7
20190320053930 51 202 0.0 0.0 0.00 0.00 0.00 78 1019.8
20190320052859 52 202 0.0 0.0 0.00 0.00 0.00 77 1019.8
20190320051855 52 202 0.0 0.0 0.00 0.00 0.00 76 1019.9
20190320050848 53 202 0.0 0.0 0.00 0.00 0.00 75 1019.9
20190320045834 54 202 0.0 0.0 0.00 0.00 0.00 74 1019.9
20190320043820 56 202 0.0 0.0 0.00 0.00 0.00 72 1019.8
20190320042840 57 202 0.0 0.0 0.00 0.00 0.00 71 1019.8
20190320041816 58 202 0.0 0.0 0.00 0.00 0.00 71 1019.7
20190320040821 58 202 0.0 0.0 0.00 0.00 0.00 70 1019.7
20190320034810 59 166 0.0 0.0 0.00 0.00 0.00 71 1019.7
20190320033828 59 166 0.0 0.0 0.00 0.00 0.00 71 1019.6
20190320032754 59 167 0.0 0.0 0.00 0.00 0.00 71 1019.5
20190320022747 61 167 0.0 0.0 0.00 0.00 0.00 68 1019.1
20190320020749 61 167 0.0 0.0 0.00 0.00 0.00 67 1018.9
20190320015731 61 167 0.0 0.0 0.00 0.00 0.00 66 1018.8
20190320014719 62 167 0.0 0.0 0.00 0.00 0.00 66 1018.6
20190320011715 62 167 0.0 0.0 0.00 0.00 0.00 64 1018.6
20190320010640 63 167 0.0 0.0 0.00 0.00 0.00 63 1018.5
20190320005658 63 167 0.0 0.0 0.00 0.00 0.00 63 1018.4
20190320004701 63 167 0.0 0.0 0.00 0.00 0.00 63 1018.5
20190320003701 63 167 0.0 0.0 0.00 0.00 0.00 63 1018.4
20190320002716 63 159 0.0 0.0 0.00 0.00 0.00 63 1018.4
20190320000641 64 194 0.0 0.0 0.00 0.00 0.00 62 1018.3
20190319235645 64 146 0.0 0.0 0.00 0.00 0.00 61 1018.3
20190319234642 64 171 0.0 0.0 0.00 0.00 0.00 61 1018.2
20190319233628 64 180 0.0 0.0 0.00 0.00 0.00 59 1018.2
20190319232600 64 113 0.0 0.0 0.00 0.00 0.00 59 1018.1
20190319231559 64 198 0.0 0.0 0.00 0.00 0.00 59 1018.1
20190319230536 64 174 0.0 2.0 0.00 0.00 0.00 56 1018.1
20190319225507 65 165 0.0 1.0 0.00 0.00 0.00 56 1018.2
20190319223506 65 88 0.0 0.0 0.00 0.00 0.00 55 1018.2
20190319220351 67 184 0.0 6.0 0.00 0.00 0.00 52 1018.2
20190319212417 68 159 0.0 1.0 0.00 0.00 0.00 48 1018.3
20190319211350 71 153 0.0 0.0 0.00 0.00 0.00 47 1018.4
20190319210347 69 134 0.0 2.0 0.00 0.00 0.00 46 1018.3
20190319204258 69 149 0.0 1.0 0.00 0.00 0.00 46 1018.5
20190319203236 69 178 0.0 0.0 0.00 0.00 0.00 45 1018.5
20190319200204 70 108 0.0 0.0 0.00 0.00 0.00 47 1019.0
20190319192109 70 125 0.0 1.0 0.00 0.00 0.00 44 1019.7
20190319191123 69 123 0.0 0.0 0.00 0.00 0.00 44 1019.9
20190319190052 70 153 0.0 0.0 0.00 0.00 0.00 42 1020.2
20190319185024 70 114 0.0 0.0 0.00 0.00 0.00 43 1020.4
20190319182034 68 243 0.0 0.0 0.00 0.00 0.00 48 1020.8
20190319181022 67 140 0.0 0.0 0.00 0.00 0.00 46 1021.0
20190319175954 67 216 0.0 16.0 0.00 0.00 0.00 45 1021.2
20190319174938 65 172 0.0 0.0 0.00 0.00 0.00 48 1021.3
20190319171907 68 181 0.0 0.0 0.00 0.00 0.00 47 1021.7
20190319163815 66 181 0.0 0.0 0.00 0.00 0.00 49 1022.0
20190319162810 66 115 0.0 1.0 0.00 0.00 0.00 50 1022.0
20190319161744 65 130 0.0 0.0 0.00 0.00 0.00 51 1022.1